Temp
55 56 55 56 56 56 56 55 56 55 55 55 54 54 53 53 53 51 51 51 51 51 51 51 51 51 50 51 51 52 52 51 51 51 50 50 50 50 49 51 52 54
54 54 54 55 55 56 56 56 55 55 55 55 55 55 54 53 52 51 50 50 50 50 51 50 50 50 50 50 49 49 50 50 49 49 49 48 49 49 49 50 50 52
53 53 53 52 53 54 55 55 55 55 55 55 55 55 53 53 51 51 51 50 49 49 49 49 49 49 49 49 49 48 49 49 48 49 48 48 49 49 49 50 50 50
52 52 53 53 53 53 54 54 54 54 54 53 53 53 53 51 51 50 50 48 49 48 49 49 48 49 48 48 48 48 48 48 49 49 47 48 48 48 49 50 50 50
50 50 52 52 52 53 53 52 52 52 53 53 53 53 52 51 50 50 49 48 48 48 48 48 48 48 48 47 47 47 47 47 47 47 47 47 48 47 48 49 48 48
49 50 51 51 51 51 51 51 52 52 52 51 52 53 52 51 50 49 49 48 48 48 47 47 47 47 47 47 46 46 47 46 47 46 46 46 47 47 46 47 48 48
47 47 48 49 50 50 50 51 51 52 52 52 52 51 51 50 50 49 49 49 48 47 47 46 46 46 46 46 46 45 46 46 46 45 44 45 45 45 45 45 46 46
47 47 47 47 47 48 48 49 50 50 51 51 50 51 51 50 50 49 49 48 47 46 46 47 46 46 46 45 44 44 43 43 43 43 43 44 44 43 44 43 44 43
46 45 46 46 46 46 47 47 48 49 50 49 49 50 51 50 49 48 47 48 47 46 46 46 46 46 46 44 44 44 43 43 42 43 42 42 41 42 43 43 41 41
45 45 45 44 44 45 45 45 46 47 48 47 48 48 48 49 48 48 47 46 45 45 45 45 45 44 44 44 43 43 43 42 42 42 42 41 41 42 42 41 40 40
44 44 43 43 43 43 43 43 44 46 47 47 47 46 47 47 47 48 47 46 44 44 44 44 45 44 44 44 43 43 42 41 41 41 41 40 41 41 40 40 39 39
44 44 43 43 42 41 41 41 43 43 45 46 47 46 46 45 45 46 45 46 46 46 46 45 45 45 44 44 43 43 42 41 41 41 41 40 40 40 41 40 39 39
43 43 43 43 42 41 40 40 40 41 42 42 44 45 45 45 45 45 45 45 45 45 45 45 45 45 45 44 43 42 42 41 41 41 41 41 41 41 41 41 41 40
43 43 43 43 43 42 41 40 39 39 39 40 41 42 42 43 43 43 43 44 44 45 44 44 44 44 45 44 43 42 41 41 41 41 41 42 42 42 43 42 42 41
42 43 43 43 43 42 41 41 39 38 38 38 39 39 40 41 41 42 41 41 42 42 43 43 43 43 44 45 43 42 41 41 42 42 42 42 42 42 43 43 43 43
42 42 41 41 41 41 40 40 39 39 38 37 37 38 39 39 40 41 41 41 40 41 42 41 42 42 41 40 41 42 41 40 40 41 42 42 42 42 42 43 43 43
41 40 40 39 40 39 39 38 39 39 39 38 37 38 37 38 39 39 40 40 40 40 41 41 41 41 40 40 41 41 41 41 40 40 41 41 42 41 41 41 42 43
40 39 38 37 37 35 35 35 36 36 36 36 37 37 37 38 37 38 39 39 40 40 40 40 40 39 40 40 40 40 40 41 41 38 38 40 41 41 41 41 41 41
39 36 35 34 35 35 35 35 34 35 35 35 36 36 37 37 38 37 38 39 39 38 38 39 39 40 40 40 40 40 40 40 39 40 38 38 40 40 41 41 41 40
38 35 34 34 35 34 35 34 34 34 35 36 36 36 35 35 36 36 37 38 38 37 37 38 38 38 39 39 39 39 40 39 37 38 39 39 40 40 40 40 40 40
35 34 34 34 33 33 33 33 34 34 34 35 36 35 35 35 36 35 35 35 36 36 36 35 36 37 38 38 39 39 39 39 37 37 37 38 39 39 40 40 40 40
34 33 32 32 32 32 32 32 32 33 32 34 34 35 35 36 36 35 34 33 34 34 35 35 36 36 37 37 37 38 39 37 37 36 36 38 38 38 38 39 39 38
34 33 31 31 31 30 30 30 30 31 33 34 33 33 33 33 33 33 33 32 32 32 32 33 34 35 36 36 37 37 36 35 35 35 35 34 36 36 37 37 38 38
33 31 30 29 29 28 29 29 31 31 32 33 32 31 31 32 33 32 32 31 31 31 31 31 32 34 35 35 36 36 36 35 36 35 35 35 34 36 36 37 37 34
32 31 29 28 28 28 28 28 28 30 31 32 32 32 31 32 32 32 31 30 30 30 31 30 30 31 33 34 34 35 36 35 36 35 35 35 35 35 35 35 35 33
30 29 28 27 27 27 27 28 29 30 30 30 30 32 32 32 32 31 29 29 30 30 29 29 29 30 31 33 33 34 35 34 35 35 33 33 34 33 31 32 33 34
MSLP
1009.91 1009.71 1009.51 1009.27 1009.07 1008.95 1008.95 1009.07 1009.15 1009.39 1009.55 1009.63 1009.67 1009.67 1009.83 1010.03 1010.51 1010.79 1011.03 1011.31 1011.55 1011.87 1012.11 1012.27 1012.39 1012.55 1012.75 1012.95 1013.15 1013.35 1013.39 1013.51 1013.63 1013.75 1013.95 1014.15 1014.31 1014.59 1014.75 1014.87 1015.11 1015.03
1010.03 1009.95 1009.75 1009.51 1009.15 1008.95 1008.87 1008.87 1008.95 1009.07 1009.19 1009.27 1009.31 1009.39 1009.59 1009.83 1010.07 1010.31 1010.63 1011.03 1011.31 1011.47 1011.71 1011.99 1012.15 1012.31 1012.55 1012.71 1012.91 1013.11 1013.19 1013.35 1013.51 1013.67 1013.83 1013.99 1014.07 1014.31 1014.39 1014.51 1014.67 1014.87
1010.15 1009.95 1009.83 1009.67 1009.39 1009.11 1008.99 1008.87 1008.87 1008.91 1008.95 1008.99 1009.11 1009.23 1009.35 1009.55 1009.87 1010.11 1010.35 1010.55 1010.83 1011.11 1011.35 1011.47 1011.71 1011.87 1012.11 1012.35 1012.59 1012.79 1012.91 1012.99 1013.23 1013.39 1013.71 1013.75 1013.91 1013.95 1013.87 1014.19 1014.31 1014.51
1010.27 1010.11 1009.91 1009.71 1009.51 1009.31 1009.15 1008.99 1008.91 1008.91 1008.91 1008.99 1008.99 1009.11 1009.27 1009.47 1009.71 1009.95 1010.15 1010.43 1010.59 1010.71 1010.91 1011.19 1011.31 1011.47 1011.63 1011.83 1012.11 1012.27 1012.39 1012.55 1012.63 1013.03 1013.31 1013.47 1013.55 1013.59 1013.63 1013.71 1013.87 1014.11
1010.55 1010.27 1010.07 1009.83 1009.59 1009.39 1009.23 1009.07 1008.95 1008.87 1008.87 1008.83 1008.91 1008.99 1009.15 1009.35 1009.63 1009.79 1009.95 1010.11 1010.27 1010.43 1010.59 1010.71 1010.95 1011.15 1011.31 1011.47 1011.59 1011.71 1011.87 1012.03 1012.23 1012.51 1012.71 1012.87 1012.95 1013.27 1013.31 1013.47 1013.55 1013.75
1010.71 1010.43 1010.15 1009.99 1009.75 1009.51 1009.31 1009.11 1008.91 1008.87 1008.79 1008.79 1008.71 1008.75 1008.91 1009.11 1009.31 1009.43 1009.59 1009.75 1009.87 1010.03 1010.15 1010.35 1010.55 1010.67 1010.83 1010.99 1011.23 1011.15 1011.15 1011.35 1011.51 1011.95 1012.19 1012.23 1012.39 1012.67 1012.87 1012.99 1013.15 1013.31
1011.07 1010.67 1010.43 1010.11 1009.87 1009.63 1009.47 1009.19 1008.99 1008.83 1008.75 1008.59 1008.59 1008.59 1008.71 1008.87 1009.03 1009.15 1009.27 1009.39 1009.55 1009.63 1009.71 1009.87 1010.07 1010.31 1010.39 1010.55 1010.63 1010.63 1010.67 1010.67 1010.87 1011.15 1011.39 1011.55 1011.79 1012.03 1012.27 1012.55 1012.67 1012.75
1011.15 1010.91 1010.63 1010.39 1010.15 1009.87 1009.63 1009.35 1009.11 1008.91 1008.71 1008.63 1008.55 1008.39 1008.47 1008.63 1008.75 1008.87 1008.95 1009.07 1009.19 1009.31 1009.43 1009.51 1009.59 1009.71 1009.87 1010.03 1010.03 1010.11 1010.27 1010.43 1010.59 1010.71 1010.87 1011.03 1011.23 1011.35 1011.51 1011.95 1012.23 1012.43
1011.43 1011.19 1010.91 1010.55 1010.35 1010.07 1009.91 1009.63 1009.31 1008.99 1008.75 1008.67 1008.51 1008.39 1008.35 1008.47 1008.59 1008.67 1008.71 1008.79 1008.87 1008.99 1009.19 1009.31 1009.31 1009.39 1009.43 1009.51 1009.55 1009.59 1009.63 1009.83 1010.03 1010.23 1010.39 1010.59 1010.75 1010.71 1010.91 1011.27 1011.83 1011.95
1011.71 1011.43 1011.15 1010.87 1010.63 1010.35 1010.15 1009.95 1009.67 1009.27 1008.91 1008.71 1008.51 1008.43 1008.35 1008.35 1008.47 1008.47 1008.55 1008.63 1008.63 1008.71 1008.87 1008.95 1008.99 1009.03 1009.11 1009.15 1009.19 1009.27 1009.35 1009.51 1009.75 1009.91 1009.87 1009.95 1009.99 1010.11 1010.27 1010.55 1010.79 1011.15
1011.87 1011.59 1011.35 1011.07 1010.91 1010.71 1010.47 1010.19 1009.83 1009.43 1009.07 1008.83 1008.59 1008.43 1008.27 1008.23 1008.31 1008.39 1008.35 1008.39 1008.43 1008.43 1008.47 1008.51 1008.51 1008.59 1008.67 1008.71 1008.83 1008.95 1009.07 1009.23 1009.43 1009.59 1009.71 1009.75 1009.75 1009.59 1009.71 1010.11 1010.31 1010.27
1011.83 1011.59 1011.43 1011.31 1011.15 1010.95 1010.71 1010.43 1010.07 1009.63 1009.19 1008.83 1008.63 1008.47 1008.39 1008.27 1008.11 1008.11 1008.19 1008.15 1008.07 1008.07 1008.03 1008.03 1008.11 1008.11 1008.15 1008.19 1008.31 1008.55 1008.75 1008.91 1009.07 1009.23 1009.39 1009.59 1009.75 1009.79 1010.03 1010.15 1010.15 1010.07
1012.15 1011.79 1011.55 1011.39 1011.27 1011.11 1010.87 1010.63 1010.35 1009.99 1009.59 1009.23 1008.83 1008.63 1008.43 1008.27 1008.07 1007.91 1007.75 1007.79 1007.79 1007.83 1007.79 1007.75 1007.71 1007.67 1007.71 1007.87 1008.07 1008.31 1008.47 1008.63 1008.75 1008.87 1008.95 1009.19 1009.31 1009.55 1009.75 1009.83 1009.79 1009.87
1012.35 1012.11 1011.79 1011.55 1011.35 1011.07 1010.83 1010.67 1010.47 1010.23 1009.99 1009.63 1009.27 1008.91 1008.63 1008.39 1008.15 1007.91 1007.71 1007.59 1007.51 1007.55 1007.55 1007.55 1007.51 1007.43 1007.39 1007.51 1007.71 1007.91 1008.15 1008.23 1008.35 1008.47 1008.55 1008.67 1008.79 1008.95 1009.11 1009.19 1009.23 1009.31
1012.55 1012.27 1011.99 1011.71 1011.47 1011.23 1010.87 1010.63 1010.43 1010.27 1009.99 1009.71 1009.51 1009.31 1008.95 1008.63 1008.23 1007.99 1007.75 1007.63 1007.51 1007.47 1007.39 1007.31 1007.19 1007.07 1007.03 1007.15 1007.31 1007.51 1007.71 1007.87 1007.91 1007.99 1008.07 1008.15 1008.23 1008.31 1008.35 1008.39 1008.43 1008.43
1012.71 1012.43 1012.15 1011.91 1011.71 1011.47 1011.23 1010.95 1010.55 1010.19 1009.95 1009.67 1009.43 1009.27 1009.07 1008.75 1008.39 1008.03 1007.71 1007.51 1007.43 1007.31 1007.23 1007.11 1006.91 1006.71 1006.71 1006.79 1006.91 1007.11 1007.31 1007.51 1007.63 1007.67 1007.67 1007.71 1007.75 1007.79 1007.83 1007.83 1007.83 1007.83
1012.83 1012.59 1012.39 1012.15 1011.91 1011.75 1011.51 1011.27 1010.87 1010.43 1010.07 1009.71 1009.43 1009.23 1009.03 1008.75 1008.47 1008.11 1007.75 1007.43 1007.23 1007.11 1007.03 1006.87 1006.67 1006.51 1006.55 1006.47 1006.51 1006.75 1007.03 1007.11 1007.31 1007.35 1007.39 1007.35 1007.27 1007.27 1007.27 1007.35 1007.43 1007.43
1012.79 1012.71 1012.63 1012.43 1012.15 1011.91 1011.67 1011.39 1011.11 1010.71 1010.31 1009.91 1009.55 1009.23 1008.95 1008.75 1008.55 1008.19 1007.83 1007.51 1007.19 1006.99 1006.87 1006.67 1006.47 1006.31 1006.27 1006.19 1006.23 1006.39 1006.59 1006.79 1006.83 1006.91 1006.91 1006.87 1006.79 1006.75 1006.79 1006.91 1006.99 1007.07
1012.83 1012.79 1012.71 1012.51 1012.31 1012.07 1011.75 1011.39 1011.03 1010.67 1010.23 1009.87 1009.51 1009.15 1008.91 1008.71 1008.43 1008.19 1007.87 1007.51 1007.27 1006.99 1006.71 1006.47 1006.27 1006.11 1006.07 1005.95 1005.95 1006.03 1006.19 1006.39 1006.39 1006.35 1006.35 1006.31 1006.27 1006.27 1006.31 1006.39 1006.47 1006.63
1012.91 1012.91 1012.75 1012.51 1012.27 1012.03 1011.71 1011.39 1011.07 1010.67 1010.23 1009.87 1009.43 1009.11 1008.91 1008.67 1008.35 1008.15 1007.75 1007.43 1007.15 1006.87 1006.55 1006.31 1006.07 1005.87 1005.79 1005.71 1005.71 1005.75 1005.79 1005.95 1005.95 1005.91 1005.87 1005.75 1005.71 1005.79 1005.79 1005.87 1005.91 1006.03
1012.95 1012.83 1012.71 1012.51 1012.31 1012.03 1011.75 1011.47 1011.11 1010.63 1010.19 1009.75 1009.35 1009.07 1008.79 1008.59 1008.31 1008.07 1007.79 1007.47 1007.11 1006.75 1006.47 1006.15 1005.83 1005.67 1005.59 1005.47 1005.47 1005.51 1005.51 1005.55 1005.51 1005.51 1005.43 1005.31 1005.31 1005.35 1005.39 1005.43 1005.51 1005.59
1012.95 1012.79 1012.63 1012.43 1012.19 1011.95 1011.67 1011.39 1011.03 1010.71 1010.31 1009.79 1009.39 1008.99 1008.63 1008.31 1008.03 1007.83 1007.59 1007.31 1006.91 1006.63 1006.23 1005.83 1005.47 1005.31 1005.23 1005.27 1005.31 1005.35 1005.39 1005.35 1005.27 1005.19 1005.03 1004.87 1004.87 1004.99 1005.07 1005.15 1005.19 1005.35
1012.83 1012.79 1012.63 1012.47 1012.23 1011.95 1011.67 1011.35 1010.95 1010.51 1010.11 1009.67 1009.39 1008.99 1008.59 1008.19 1007.87 1007.51 1007.27 1007.03 1006.75 1006.51 1006.23 1005.75 1005.39 1005.15 1005.07 1004.99 1005.03 1005.11 1005.19 1005.19 1005.15 1005.07 1004.87 1004.59 1004.55 1004.71 1004.83 1004.91 1004.91 1005.03
1012.67 1012.67 1012.55 1012.39 1012.19 1011.99 1011.63 1011.23 1010.87 1010.47 1010.03 1009.55 1009.35 1008.91 1008.47 1007.99 1007.59 1007.23 1006.95 1006.75 1006.51 1006.27 1006.11 1005.91 1005.47 1005.19 1005.07 1004.91 1004.83 1004.87 1004.95 1004.91 1004.79 1004.67 1004.47 1004.35 1004.35 1004.43 1004.55 1004.59 1004.59 1004.87
1012.47 1012.43 1012.39 1012.23 1012.03 1011.75 1011.47 1011.19 1010.79 1010.31 1009.75 1009.47 1009.15 1008.71 1008.27 1007.75 1007.35 1006.99 1006.63 1006.35 1006.07 1005.83 1005.71 1005.75 1005.47 1005.23 1005.07 1004.87 1004.71 1004.63 1004.67 1004.67 1004.55 1004.39 1004.11 1003.91 1003.95 1004.07 1004.19 1004.23 1004.31 1004.55
1012.27 1012.23 1012.11 1011.99 1011.79 1011.47 1011.27 1010.99 1010.55 1010.07 1009.67 1009.35 1008.91 1008.55 1007.99 1007.51 1007.27 1006.95 1006.59 1006.03 1005.59 1005.43 1005.27 1005.31 1005.27 1005.03 1004.95 1004.79 1004.63 1004.51 1004.47 1004.43 1004.35 1004.23 1003.91 1003.83 1003.87 1003.91 1004.07 1004.11 1004.03 1004.03
Wind_Speed
8 8 9 8 9 9 9 9 9 9 9 9 10 10 11 10 11 11 13 13 13 13 13 13 12 12 10 11 11 10 10 11 10 10 11 11 12 12 11 12 11 10
9 9 8 8 8 8 8 9 9 9 9 10 10 9 8 9 11 11 12 12 12 13 12 12 11 12 11 10 10 11 10 9 11 6 9 12 12 11 12 13 14 11
9 9 9 10 10 10 10 9 8 8 9 10 9 8 8 8 9 10 11 12 12 13 13 13 13 12 12 12 10 11 11 11 12 10 11 12 12 12 13 12 12 13
10 9 10 10 10 10 10 9 8 8 8 8 9 8 7 5 8 10 10 12 11 12 12 13 13 12 12 13 11 11 12 12 11 10 11 11 11 12 12 11 12 10
11 10 9 10 9 10 9 9 9 9 9 9 8 7 8 7 8 9 10 10 12 12 12 13 13 13 13 13 13 13 12 12 11 11 11 13 12 11 11 10 12 13
10 10 10 10 10 10 9 10 10 9 10 9 10 8 7 7 9 10 11 11 12 12 13 13 13 13 13 13 13 14 13 12 12 13 14 14 12 11 9 11 13 13
12 11 11 10 10 10 11 11 10 9 9 9 8 7 7 8 10 11 11 11 12 12 13 13 13 13 12 13 13 14 13 13 13 14 16 13 12 12 11 11 13 13
13 11 10 10 10 10 10 10 10 10 9 8 9 9 8 9 10 9 10 11 11 12 12 13 13 14 13 13 13 14 13 8 11 12 13 14 12 13 12 10 10 10
11 11 11 12 11 9 10 11 11 10 9 9 9 9 8 8 9 9 10 11 11 11 11 12 12 13 12 13 13 14 14 12 11 12 13 12 12 13 13 10 10 10
12 12 12 12 12 10 12 11 11 10 9 9 9 8 9 8 9 10 9 10 10 10 11 11 12 12 11 12 14 14 12 12 11 13 12 11 14 14 12 11 13 12
11 11 12 13 13 11 13 12 11 10 9 9 9 8 8 8 8 9 10 10 10 11 11 12 12 12 12 12 12 11 12 10 10 10 9 10 11 15 17 17 11 12
12 11 11 12 11 11 11 11 11 11 11 9 9 10 9 8 8 8 9 11 11 12 12 12 12 12 13 13 12 11 11 11 10 10 10 10 8 12 16 15 18 12
11 12 11 11 10 9 8 9 10 11 11 11 10 10 10 9 8 9 8 10 11 10 11 12 12 13 12 12 12 12 12 13 12 13 12 10 12 12 12 13 13 11
10 10 10 10 10 9 8 7 8 9 9 9 9 10 9 9 9 8 7 7 9 10 10 10 11 11 11 11 10 10 11 12 12 13 14 14 13 15 16 16 16 15
9 9 9 10 10 11 11 11 9 8 9 8 8 8 7 8 8 8 9 8 8 10 9 8 9 10 9 9 10 11 10 11 13 13 14 14 14 15 16 16 16 16
9 9 10 10 10 10 11 11 10 9 8 9 8 8 8 8 8 8 8 9 9 9 10 9 9 7 10 15 13 9 9 9 9 11 13 13 13 14 15 16 16 14
8 9 10 11 10 10 10 10 11 10 9 8 8 7 8 8 8 8 8 8 9 9 9 8 6 6 14 14 15 19 13 10 10 11 12 14 14 14 14 14 14 15
8 9 9 10 10 10 9 8 8 8 8 7 7 6 7 7 8 8 8 8 8 9 9 8 8 11 14 14 16 18 18 13 10 10 10 13 13 14 13 12 12 12
9 8 8 8 8 8 9 9 9 8 7 7 7 7 7 6 8 8 8 8 8 9 9 9 8 10 12 15 16 18 19 19 10 11 11 11 14 14 14 13 11 11
9 8 8 9 9 10 10 10 9 9 9 8 6 6 6 7 7 7 8 8 8 8 9 8 9 9 12 14 14 17 19 18 13 13 12 13 14 14 13 14 14 12
8 8 8 9 9 9 9 10 10 10 11 9 8 7 7 7 7 8 7 7 8 7 8 8 7 11 13 14 15 17 19 18 12 13 11 10 12 13 13 13 13 11
8 9 9 10 10 10 10 11 10 10 11 10 9 9 7 7 6 6 7 7 8 7 8 8 8 10 13 14 15 16 19 13 11 11 11 11 11 10 11 11 9 9
8 8 9 10 10 11 11 11 11 12 11 9 9 10 10 9 8 7 6 7 8 8 8 8 8 10 12 13 15 18 14 10 11 10 12 8 8 8 9 10 9 9
8 8 9 9 10 10 11 11 11 10 10 9 9 11 11 10 9 8 7 6 7 7 7 8 8 10 12 13 14 16 14 10 10 11 11 10 10 10 9 9 12 16
8 8 8 9 10 10 10 12 12 11 10 9 10 9 10 10 9 9 9 7 5 6 9 9 8 9 13 14 15 15 13 10 11 11 15 12 10 8 9 9 9 11
8 10 10 10 12 12 11 11 10 10 10 11 10 10 10 9 8 9 9 9 7 6 5 6 8 7 9 14 15 16 17 12 10 12 14 10 6 7 6 7 8 9
Wind_Direction
264 260 255 249 245 243 241 234 227 223 222 221 220 216 212 209 201 200 203 205 208 209 209 212 208 204 202 201 201 205 208 208 206 204 202 200 207 199 203 199 203 207
276 269 265 262 259 251 245 240 236 228 227 224 225 223 217 203 199 197 199 201 205 208 207 207 208 207 204 204 201 205 212 209 209 196 204 203 210 205 212 204 205 206
290 280 270 263 262 262 258 251 243 237 235 236 230 224 220 203 201 201 203 202 205 208 208 207 206 205 202 203 202 205 213 211 212 204 208 211 210 211 214 207 210 203
308 293 283 276 270 266 264 261 249 244 244 241 233 224 216 195 203 203 206 203 208 209 209 206 207 204 200 200 198 207 211 213 213 205 208 214 212 213 212 206 209 205
324 313 301 290 281 276 271 262 257 251 245 242 242 225 218 210 204 207 205 204 208 211 209 207 206 207 202 202 201 208 209 212 206 201 206 212 214 208 214 205 207 208
339 329 317 306 296 289 280 272 264 258 252 246 242 234 224 213 209 212 209 207 208 209 210 209 207 206 200 202 202 210 207 207 205 199 208 212 210 205 205 206 209 210
356 347 335 326 316 302 293 285 278 269 263 258 254 239 224 219 217 215 213 211 208 208 208 207 204 205 202 201 206 210 210 208 202 197 202 209 203 204 198 199 208 210
4 1 351 341 328 317 303 295 286 281 274 265 258 253 230 227 224 218 214 212 211 211 210 210 208 204 201 200 205 207 207 199 202 199 200 208 199 207 194 193 196 202
0 1 0 359 350 335 325 315 305 294 285 274 267 262 243 231 228 222 217 217 216 214 211 213 211 210 207 205 210 208 207 202 195 200 201 201 202 205 196 183 188 200
1 360 3 4 1 355 342 328 316 306 296 282 268 260 258 239 232 232 224 217 219 215 214 214 214 215 212 211 213 212 212 210 203 207 206 201 206 207 194 181 198 200
1 1 1 360 360 355 349 342 331 319 309 297 285 269 253 247 237 235 237 228 224 219 215 215 213 210 210 211 211 211 212 210 209 210 214 214 215 217 213 205 200 203
360 0 1 358 354 350 347 342 339 335 328 317 302 287 272 250 242 228 226 234 231 228 225 223 220 218 217 216 212 208 211 212 214 214 217 216 219 225 226 220 220 211
354 355 354 353 352 347 341 345 342 338 336 331 323 307 295 280 257 240 229 228 233 229 230 228 225 222 221 219 217 214 215 218 219 221 223 221 222 219 217 220 220 216
348 344 346 346 344 345 344 340 342 343 339 330 325 320 307 290 277 258 248 233 236 236 232 229 228 226 224 219 215 209 210 217 219 222 224 226 225 222 221 220 221 218
343 344 341 341 338 342 344 344 340 339 338 333 327 318 311 299 288 282 271 258 247 244 241 227 226 229 225 218 213 210 206 214 218 220 222 224 224 223 222 223 221 219
340 341 342 340 344 340 339 335 331 331 331 336 333 323 316 311 305 295 282 271 264 253 246 244 234 224 223 222 220 220 210 209 212 218 221 223 225 225 226 225 224 221
340 341 338 339 337 335 333 334 333 331 327 325 324 322 318 317 312 304 297 283 269 259 249 238 233 228 235 227 223 221 223 218 212 218 219 224 226 224 225 223 224 225
337 335 334 330 333 330 328 324 322 319 321 322 320 322 322 316 311 304 302 295 285 275 263 255 250 250 238 230 225 222 221 225 221 219 217 222 225 225 226 223 221 220
330 332 328 325 323 322 319 319 316 315 315 321 319 318 315 311 309 308 300 297 291 284 277 268 264 255 245 233 227 225 222 222 231 224 223 225 226 226 226 223 218 211
322 324 321 320 321 320 321 316 317 313 314 312 305 307 310 306 304 301 298 297 291 288 283 282 275 279 262 247 235 228 227 222 231 232 229 230 227 225 223 223 220 216
320 317 317 316 315 316 315 314 313 313 315 316 315 310 307 306 306 302 293 290 290 283 282 275 269 274 276 265 252 241 234 229 233 236 236 230 229 227 226 224 221 215
314 313 315 317 317 316 313 312 311 310 309 311 311 307 298 291 290 286 288 291 291 289 286 281 276 270 268 266 261 257 249 240 239 238 238 236 228 222 221 222 214 202
308 308 308 310 311 310 308 309 310 310 308 307 307 305 306 302 297 287 285 287 287 288 286 282 282 274 270 267 264 259 251 243 244 245 244 241 228 221 219 220 213 201
301 300 298 301 303 301 303 304 304 302 298 303 305 303 301 297 300 296 281 273 270 275 278 282 281 277 274 270 264 261 254 247 243 242 239 232 233 220 220 221 221 217
292 293 293 293 294 294 297 299 299 296 294 297 293 292 287 293 299 297 295 282 248 250 274 272 271 274 272 269 263 259 255 250 249 249 252 243 232 227 217 221 216 208
288 290 289 289 289 290 293 291 291 293 294 295 293 291 290 288 288 289 287 286 278 270 244 246 259 260 264 264 262 257 252 251 251 251 252 248 225 228 208 213 215 210